This demonstration page uses our WeatherBlox Daily Observations layout. Learn more.

Left ArrowRight Arrow

38.80484, -77.04692

Hourly Observations for November 21, 2020

Temp ( °F °C ) Dew Point ( °F °C ) Humidity (%) Winds ( mph kmh ) Pressure ( in mb ) Visibility ( mi km ) Precip ( " mm )
12:52 am 00:52 Mostly Clear 47 8.3 43 6.1 86 86 Calm 30.33 1027 10 16.0934 0 0
1:52 am 01:52 Clear 47 8.3 43 6.1 86 86 Calm 30.33 1027 10 16.0934 0 0
2:52 am 02:52 Clear 47 8.3 43 6.1 86 86 Calm 30.33 1027 10 16.0934 0 0
3:52 am 03:52 Partly Cloudy 46 7.8 41 5 83 83 SW 3 6 30.33 1027 10 16.0934 0 0
4:52 am 04:52 Mostly Cloudy 48 8.9 41 5 77 77 Calm 30.34 1028 10 16.0934 0 0
5:52 am 05:52 Mostly Cloudy 47 8.3 42 5.6 83 83 Calm 30.36 1028 10 16.0934 0 0
6:52 am 06:52 Mostly Cloudy 48 8.9 42 5.6 80 80 SSW 5 7 30.37 1029 10 16.0934 0 0
7:52 am 07:52 Mostly Cloudy 49 9.4 43 6.1 80 80 Calm 30.38 1029 10 16.0934 0 0
8:52 am 08:52 Mostly Cloudy 52 11.1 44 6.7 75 75 Calm 30.4 1029 10 16.0934 0 0
9:52 am 09:52 Mostly Cloudy 55 12.8 44 6.7 67 67 SSW 3 6 30.39 1029 10 16.0934 0 0
10:52 am 10:52 Mostly Cloudy 56 13.3 45 7.2 67 67 S 5 7 30.39 1029 10 16.0934 0 0
11:52 am 11:52 Cloudy 59 15 46 7.8 62 62 Calm 30.37 1028 10 16.0934 0 0
12:52 pm 12:52 Cloudy 62 16.7 47 8.3 58 58 Calm 30.34 1028 10 16.0934 0 0
1:52 pm 13:52 Cloudy 63 17.2 49 9.4 60 60 Calm 30.34 1027 10 16.0934 0 0
2:52 pm 14:52 Cloudy 61 16.1 48 8.9 63 63 Calm 30.34 1027 10 16.0934 0 0
3:52 pm 15:52 Cloudy 62 16.7 48 8.9 60 60 Calm 30.34 1028 10 16.0934 0 0
4:52 pm 16:52 Cloudy 64 17.8 49 9.4 58 58 Calm 30.35 1028 10 16.0934 0 0
5:52 pm 17:52 Cloudy 61 16.1 49 9.4 65 65 N 3 6 30.37 1028 10 16.0934 0 0
6:52 pm 18:52 Cloudy 60 15.6 49 9.4 67 67 NNE 6 9 30.38 1029 10 16.0934 0 0
7:52 pm 19:52 Cloudy 60 15.6 48 8.9 65 65 NNE 3 6 30.38 1029 10 16.0934 0 0
8:52 pm 20:52 Cloudy 59 15 48 8.9 67 67 NNE 6 9 30.39 1029 10 16.0934 0 0
9:52 pm 21:52 Cloudy 58 14.4 47 8.3 67 67 NE 8 13 30.39 1029 10 16.0934 0 0
10:52 pm 22:52 Cloudy 58 14.4 46 7.8 65 65 ENE 6 9 30.39 1029 10 16.0934 0 0
11:52 pm 23:52 Partly Cloudy 55 12.8 42 5.6 62 62 NNE 6 9 30.4 1029 10 16.0934 0 0

Powered by AerisWeather